Starlink 34136

operational
NORAD ID: 64112 Int'l Des: 2025-110 Owner: SPXS Country: US Constellation: starlink
LEOCIRCULAR

Starlink 34136について

説明を読み込み中...

リアルタイム位置

3D地球を読み込み中...

次回通過

高度履歴

Altitude vs Time

uPlot chart will show altitude changes over time

軌道要素

1 64112U 25110S 26095.60611963 .00021701 00000-0 74265-3 0 9995
2 64112 53.1586 261.7263 0000611 63.9838 296.1226 15.30200523 50000
Epoch: Apr 5, 2026 • Age: 8 hours

現在のステータス

高度 491.2 km
速度 7.62 km/s
衛星直下点 -46.21°S, 43.45°E
打ち上げ日 May 23, 2025
運用期間 0.8 years
タイプ internet

技術仕様

分類 Payload
質量 575.00 kg
乾燥質量 530.00 kg
総質量 575.00 kg
長さ 0.30 m
直径 4.10 m
スパン 29.00 m
形状 Box + pan
製造者 SPXS
バスタイプ Starlink V2MO
フェーズステータス In Orbit
所有者/国 SPXS/US

大規模コンステレーション

Loading constellations...